Change the Weather History Date:

Sunday, January 2, 2005

  Actual Average Record
Temperature  
Mean Temperature 49 °F 28 °F  
Max Temperature 59 °F 35 °F 66 °F (1876)
Min Temperature 39 °F 22 °F -12 °F (1879)
Degree Days  
Heating Degree Days 16 37  
Month to date heating degree days 73  
Since 1 July heating degree days 2180  
Cooling Degree Days 0 0  
Month to date cooling degree days 0  
Year to date cooling degree days 0  
Moisture  
Dew Point 47 °F    
Average Humidity 87    
Maximum Humidity 96    
Minimum Humidity 65    
Precipitation  
Precipitation 0.38 in 0.10 in 0.75 in (1965)
Month to date precipitation 0.20  
Year to date precipitation 0.20  
Snow  
Snow 0.00 in 0.60 in - ()
Month to date snowfall 1.2  
Since 1 July snowfall 19.8  
Snow Depth -    
Sea Level Pressure  
Sea Level Pressure 30.30 in    
Wind  
Wind Speed 10 mph (South)    
Max Wind Speed 16 mph    
Max Gust Speed 22 mph    
Visibility 6 miles    
Events Rain    
T = Trace of Precipitation, MM = Missing Value Source: NWS Daily Summary

Daily Weather History Graph

Daily Weather History Graph

Search for Another Location

Airport or City:

Trip Planner

Search our weather history database for the weather conditions in past years. The results will help you decide how hot, cold, wet, or windy it might be!

Date:

Astronomy

Jan. 02, 2005 Rise Set
Actual Time 7:53 AM EST 5:09 PM EST
Civil Twilight 7:22 AM EST 5:40 PM EST
Nautical Twilight 6:47 AM EST 6:15 PM EST
Astronomical Twilight 6:14 AM EST 6:49 PM EST
Moon No Moon Rise 11:48 AM EST (1/2)
Length of Visible Light 10h 18m
Length of Day
9h 15m
Waning Gibbous, 60% of the Moon is Illuminated
Jan 2
Waning Gibbous
Jan 3
Last Quarter
Jan 10
New
Jan 17
First Quarter
Jan 25
Full

Hourly Weather History & Observations

Time (EST) Temp. Windchill Dew Point Humidity Pressure Visibility Wind Dir Wind Speed Gust Speed Precip Events Conditions
12:11 AM 39.2 °F 35.0 °F 28.4 °F 65% 30.42 in 10.0 mi ESE 5.8 mph - N/A   Overcast
12:41 AM 41.0 °F 36.4 °F 30.2 °F 65% 30.41 in 10.0 mi SE 6.9 mph - N/A   Overcast
12:51 AM 41.0 °F 36.4 °F 30.9 °F 67% 30.42 in 10.0 mi SSE 6.9 mph - N/A   Overcast
1:51 AM 39.0 °F 32.8 °F 34.0 °F 82% 30.40 in 6.0 mi SSE 9.2 mph - 0.03 in Rain Rain
2:51 AM 39.9 °F 32.1 °F 37.0 °F 89% 30.39 in 9.0 mi SSE 13.8 mph - 0.03 in   Overcast
2:57 AM 39.2 °F 31.6 °F 37.4 °F 93% 30.37 in 7.0 mi SSE 12.7 mph - N/A   Overcast
3:39 AM 41.0 °F 34.3 °F 39.2 °F 93% 30.35 in 6.0 mi SSE 11.5 mph - 0.01 in   Overcast
3:51 AM 41.0 °F 34.3 °F 39.0 °F 93% 30.37 in 6.0 mi SSE 11.5 mph - 0.01 in   Overcast
4:51 AM 42.1 °F 37.1 °F 39.9 °F 92% 30.36 in 6.0 mi SSE 8.1 mph - N/A   Overcast
5:51 AM 45.0 °F 39.3 °F 43.0 °F 93% 30.34 in 6.0 mi South 11.5 mph - N/A   Overcast
6:51 AM 48.0 °F - 45.0 °F 89% 30.33 in 6.0 mi South 12.7 mph - N/A   Mostly Cloudy
7:51 AM 48.9 °F - 46.0 °F 90% 30.33 in 7.0 mi South 10.4 mph - 0.00 in   Overcast
8:51 AM 50.0 °F - 48.0 °F 93% 30.33 in 7.0 mi South 12.7 mph - N/A   Overcast
9:51 AM 53.1 °F - 48.9 °F 86% 30.32 in 8.0 mi South 13.8 mph - N/A   Mostly Cloudy
10:51 AM 55.0 °F - 48.9 °F 80% 30.31 in 9.0 mi SSW 12.7 mph - N/A   Scattered Clouds
11:51 AM 57.0 °F - 51.1 °F 81% 30.28 in 10.0 mi SSW 12.7 mph - N/A   Mostly Cloudy
12:19 PM 57.2 °F - 51.8 °F 82% 30.25 in 10.0 mi South 15.0 mph 21.9 mph N/A   Mostly Cloudy
12:51 PM 57.9 °F - 52.0 °F 81% 30.25 in 10.0 mi SSW 15.0 mph - N/A   Overcast
1:51 PM 59.0 °F - 52.0 °F 78% 30.23 in 10.0 mi SSW 15.0 mph - N/A   Overcast
2:36 PM 59.0 °F - 53.6 °F 82% 30.21 in 7.0 mi SSW 11.5 mph - 0.00 in Rain Light Rain
2:51 PM 59.0 °F - 53.1 °F 81% 30.22 in 10.0 mi SSW 16.1 mph 19.6 mph 0.00 in Rain Light Rain
3:13 PM 57.2 °F - 53.6 °F 88% 30.22 in 1.5 mi SSW 8.1 mph - 0.01 in Rain Heavy Rain
3:27 PM 57.2 °F - 53.6 °F 88% 30.23 in 1.5 mi SSW 8.1 mph - 0.09 in Rain Heavy Rain
3:36 PM 57.2 °F - 53.6 °F 88% 30.23 in 2.0 mi SSW 8.1 mph - 0.11 in Rain Light Rain
3:51 PM 55.9 °F - 54.0 °F 93% 30.24 in 2.0 mi SSW 9.2 mph - 0.12 in Rain Light Rain
4:51 PM 55.0 °F - 53.1 °F 93% 30.25 in 2.5 mi SSW 10.4 mph - 0.03 in Rain Light Rain
5:01 PM 55.4 °F - 53.6 °F 94% 30.24 in 9.0 mi SW 10.4 mph - 0.00 in Rain Light Rain
5:51 PM 55.0 °F - 53.1 °F 93% 30.26 in 3.0 mi SW 8.1 mph - 0.07 in Rain Heavy Rain
6:51 PM 55.0 °F - 53.1 °F 93% 30.27 in 8.0 mi SW 9.2 mph - 0.01 in Rain Light Rain
7:51 PM 55.0 °F - 53.1 °F 93% 30.28 in 10.0 mi SW 9.2 mph - 0.02 in   Overcast
8:51 PM 55.0 °F - 53.1 °F 93% 30.29 in 3.0 mi SW 6.9 mph - 0.00 in Rain Light Rain
9:27 PM 55.4 °F - 53.6 °F 94% 30.29 in 2.5 mi SW 9.2 mph - 0.01 in Rain Light Rain
9:51 PM 55.0 °F - 54.0 °F 96% 30.29 in 4.0 mi SW 8.1 mph - 0.01 in Rain Light Rain
10:51 PM 55.0 °F - 54.0 °F 96% 30.30 in 2.0 mi SW 9.2 mph - 0.00 in Rain Light Rain
11:51 PM 55.0 °F - 54.0 °F 96% 30.30 in 3.0 mi SW 8.1 mph - 0.05 in Rain Light Rain